Simultaneous Nadir Overpasses (SNOs) Predictions

Prediction of SNOs between GOES-15 and NOAA-20 Satellite Orbit:

Table of predicted SNOs for the next 14.0 days since TLE Epoch: 12/6/2019
Index Date Time (GOES-15) GOES-15 Lat,Lon NOAA-20 Lat,Lon Distance(km) Time Diff (sec)
1 12/07/2019 09:42:36 0.02,-128.24 -0.85,-124.26 452.50 80
2 12/08/2019 22:01:52 0.00,-128.17 -0.34,-129.57 160.07 80
3 12/09/2019 21:45:47 -0.01,-128.14 0.69,-125.04 353.86 80
4 12/11/2019 10:04:55 -0.01,-128.13 0.50,-130.30 248.00 80
5 12/12/2019 09:48:50 0.00,-128.10 -0.52,-125.77 265.36 80
6 12/13/2019 22:08:07 0.01,-128.01 -0.66,-131.07 348.73 80
7 12/14/2019 21:52:01 0.00,-127.98 0.31,-126.53 164.15 80
8 12/16/2019 10:11:09 -0.02,-127.95 0.82,-131.81 439.01 80
9 12/17/2019 09:55:04 -0.01,-127.91 -0.15,-127.27 73.53 80
10 12/19/2019 21:55:35 0.02,-127.78 -0.06,-128.03 29.10 80




NCC Satellite Simultaneous Nadir Overpasses (SNOs) Prediction Service
